Regional Weather Roundup
Issued by NWS Newport/Morehead, NC

Current Version | Previous Version | Text Only | Print | Product List | Glossary Off
Versions: 1 2 3 4 5 6 7 8 9 10 11 12 13 14 15 16 17 18 19 20 21 22 23 24 25 26 27 28 29 30 31 32 33 34 35 36 37 38 39 40 41 42 43 44 45 46 47 48 49 50
000 ASUS42 KMHX 221222 RWRMHX WEATHER ROUNDUP FOR EASTERN NORTH CAROLINA NATIONAL WEATHER SERVICE NEWPORT/MOREHEAD CITY NC 700 AM EST SAT NOV 22 2014 NOTE: "FAIR" INDICATES FEW OR NO CLOUDS BELOW 12,000 FEET WITH NO SIGNIFICANT WEATHER AND/OR OBSTRUCTIONS TO VISIBILITY NCZ015>017-031-032-045>047-102-103-221300- NORTH COAST CITY SKY/WX TMP DP RH WIND PRES REMARKS EDENTON N/A 24 21 87 CALM 30.58R ELIZABETH CITY PTCLDY 22 17 81 SW3 30.58R KITTY HAWK SUNNY 36 32 87 NW3 30.55R MANTEO CLEAR 31 29 93 CALM 30.57R $$ NCZ045>047-081-094-103-104-221300- CENTRAL COAST CITY SKY/WX TMP DP RH WIND PRES REMARKS FRISCO CLEAR 41 34 76 N6 30.55R SWANQUARTER N/A 30 N/A N/A N2 30.53S $$ NCZ095-097-098-100-101-221300- SOUTHERN COAST CITY SKY/WX TMP DP RH WIND PRES REMARKS BEAUFORT CLEAR 35 27 72 NE3 30.57R CEDAR ISLAND N/A 43 N/A N/A N6G12 30.59S JACKSONVILLE PTCLDY 28 22 78 N5 30.57R PINEY ISLAND SUNNY 42 30 62 N6 30.56R WILMINGTON CLEAR 29 23 78 N6 30.55R $$ NCZ011>013-027>030-043-044-078>080-089-090>093-098-221300- COASTAL PLAIN CITY SKY/WX TMP DP RH WIND PRES REMARKS AHOSKIE PTCLDY 18 15 90 CALM 30.57S CLINTON PTCLDY 26 21 83 CALM 30.58R ELIZABETHTOWN CLEAR 26 20 77 CALM 30.57R GOLDSBORO PTCLDY 24 22 90 CALM 30.56R GREENVILLE PTCLDY 23 19 86 CALM 30.56S HAVELOCK CLEAR 29 26 89 CALM 30.58R KENANSVILLE CLEAR 21 19 92 CALM 30.58R KINSTON PTCLDY 21 19 93 CALM 30.58R NEW BERN CLEAR 28 23 81 CALM 30.59R RICHLANDS CLEAR 23 18 80 CALM 30.57S ROCKY MOUNT CLEAR 22 18 85 CALM 30.57R WASHINGTON PTCLDY 22 19 86 CALM 30.58R WHITEVILLE CLEAR 30 21 69 NE3 30.55R $$ AMZ130-135-150-152-154-156-158-170-250-252-270-ANZ085-086-088-633-658-670-221300- MARINE OBSERVATIONS STATION/POSITION TIME TEMP WIND PRES WAVE SWELL AIR SEA DIR/SP/G HT/PER HT/PER (UTC) (F) (DEG/KT/KT) (MB) (FT/S) (FT/S) CHESAPEAKE LIGHT 1200 41 CALM / 6 1035.8 64 E VA BEACH 1200 43 60 30/ 2/ 4 1034.3 3/ 6 3/ 6 DUCK 1200 39 54 310/ 7/ 9 1033.9 2 E DUCK 1200 55 N/A 3/ 6 10 NE DUCK 1200 58 N/A 3/ 7 OREGON INLET 1200 39 50 290/ 5/ 5 1034.7 13E OREGON INLT 1200 61 N/A 4/ 7 HATTERAS CG 1200 44 49 10/ 12/ 14 1034.5 DIAMOND BUOY 1200 51 10/ 10/ 17 1033.8 4/ 9 3/ 9 17 S OCRACOKE NOT AVBL CAPE LOOKOUT 1200 42 10/ 10/ 12 1034.3 BEAUFORT LAB 1200 38 51 20/ 6/ 7 1033.9 30 SE NEW RIVER 1200 50 69 40/ 14/ 19 1033.1 3/ 4 2/11 5 SE WRIGHTSVLE 1200 46 59 50/ 12/ 16 1033.7 225 S CAPE HAT 1147 61 73 60/ 14/ 19 1031.1 5/ 8 3/ 8 41 SE CHARLESTON 1200 61 75 50/ 16/ 19 1030.9 4/ 6 2/13 $$

USA.gov is the U.S. government's official web portal to all federal, state and local government web resources and services.